Weather in Panovy Kusty

Russia / Tambov Oblast     52°05′19″N   41°34′28″E
temp.,
°C
wind,
m/s
gust,
m/s
humid.,
%
clouds,
%
prec.,
mm/h
press.,
hPa
HPBL,
m
28 february, sun
sun2800:00−8nnw489394 0.0 1012410
03:00−9nw369582 0.0 1014225
06:00−10nw37932 0.0 1015235
09:00−8nw469111 0.0 1015320
12:00−6nw358891 0.0 1016525
15:00−5nw468796 0.1 1016548
18:00−7nnw259496 0.1 1017142
21:00−8n359486 0.1 1019167
1 march, mon
mon100:00−9n239573 0.0 102188
03:00−10nne229453 0.0 102233
06:00−10nnw22950 0.0 102332
09:00−9nw129321 0.0 1026115
12:00−5nw348684 0.0 1026496
15:00−4wnw348492 0.1 1026576
18:00−6wsw349095 0.0 102571
21:00−3wsw4109196 0.0 1024404
2 march, tue
tue200:00−4wsw51289100 0.0 1022358
03:00−3wsw71393100 0.0 1018484
06:00−2wsw81495100 0.4 1015625
09:000w81597100 1.5 1011789
12:00+1w81498100 0.5 1009707
15:00+1wnw61293100 1.1 1009756
18:000nw51192100 0.3 1009774
21:00−1wnw6129382 0.4 1011509
3 march, wed
wed300:00−2wnw6129394 0.1 1010512
03:00−3nw6129396 0.2 1011541
06:00−3nw6129398 0.1 1011650
09:00−3nw7119099 0.3 1013838
12:00−3nw81184100 0.1 1015910
15:00−3nw71186100 0.2 1016994
18:00−3nw61288100 0.1 1017657
21:00−3nw51290100 0.2 1019715
4 march, thu
thu400:00−6nw499432 0.0 1020243
03:00−6wnw379537 0.0 1020148
06:00−6w369561 0.0 1020118
09:00−4wsw5109131 0.0 1020360
12:00−1wsw6118316 0.0 1018642
15:000wsw6128117 0.0 1016684
18:00−1sw5138232 0.0 1013341
21:00−1sw6168430 0.0 1012493